CW7710 Weather Reports


Display with metric or nautical units.
time (UTC)temp
F
wind
direction
speed
MPH
gust
MPH
rain 1hr
in
rain 24hr
in
rain mn
in
humidity
%
barometer
mb
20260904125332 49 295 6.0 0.0 0.00 0.00 0.00 66 1008.3
20260904124336 51 280 3.0 0.0 0.00 0.00 0.00 64 1007.8
20260904123334 51 275 6.0 0.0 0.00 0.00 0.00 65 1007.8
20260904122337 51 244 5.0 0.0 0.00 0.00 0.00 67 1007.5
20260904121340 50 244 9.0 0.0 0.00 0.00 0.00 67 1007.6
20260904120328 50 275 5.0 0.0 0.00 0.00 0.00 67 1007.5
20260904115342 50 246 3.0 0.0 0.00 0.00 0.00 66 1007.0
20260904114327 50 251 5.0 0.0 0.00 0.00 0.00 64 1007.0
20260904113334 51 269 5.0 0.0 0.00 0.00 0.00 64 1007.9
20260904112342 51 282 5.0 0.0 0.00 0.00 0.00 65 1007.9
20260904111325 51 252 8.0 0.0 0.00 0.00 0.00 67 1008.0
20260904110348 50 256 7.0 0.0 0.00 0.00 0.00 69 1007.5
20260904105334 52 283 8.0 0.0 0.00 0.00 0.00 66 1007.7
20260904104341 52 280 5.0 0.0 0.00 0.00 0.00 65 1007.7
20260904103404 53 284 6.0 0.0 0.00 0.00 0.00 63 1007.6
20260904102327 52 269 4.0 0.0 0.00 0.00 0.00 63 1008.0
20260904101332 53 284 3.0 0.0 0.00 0.00 0.00 62 1007.6
20260904100335 52 225 4.0 0.0 0.00 0.00 0.00 62 1007.9
20260904095342 52 203 4.0 0.0 0.00 0.00 0.00 63 1007.4
20260904094405 52 255 3.0 0.0 0.00 0.00 0.00 63 1007.3
20260904093327 54 256 2.0 0.0 0.00 0.00 0.00 60 1008.1
20260904092333 54 181 2.0 0.0 0.00 0.00 0.00 61 1008.0
20260904091340 55 206 1.0 0.0 0.00 0.00 0.00 61 1008.1
20260904090343 55 246 3.0 0.0 0.00 0.00 0.00 63 1008.3
20260904085325 55 198 4.0 0.0 0.00 0.00 0.00 66 1007.7
20260904084329 54 195 3.0 0.0 0.00 0.00 0.00 66 1008.1
20260904083332 55 202 1.0 0.0 0.00 0.00 0.00 64 1007.9
20260904082340 55 146 0.0 0.0 0.00 0.00 0.00 65 1007.9
20260904081403 55 146 3.0 0.0 0.00 0.00 0.00 64 1008.2
20260904080326 56 181 1.0 0.0 0.00 0.00 0.00 63 1008.3
20260904075329 56 130 2.0 0.0 0.00 0.00 0.00 63 1009.1
20260904074337 57 148 3.0 0.0 0.00 0.00 0.00 60 1008.9
20260904073340 59 176 3.0 0.0 0.00 0.00 0.00 57 1009.0
20260904072327 58 87 2.0 0.0 0.00 0.00 0.00 59 1009.0
20260904071354 57 100 2.0 0.0 0.00 0.00 0.00 62 1009.3
20260904070340 56 104 2.0 0.0 0.00 0.00 0.00 64 1009.3
20260904065344 56 70 3.0 0.0 0.00 0.00 0.00 64 1009.0
20260904064327 56 202 2.0 0.0 0.00 0.00 0.00 62 1009.2
20260904063333 58 73 1.0 0.0 0.00 0.00 0.00 58 1009.7
20260904062341 58 50 1.0 0.0 0.00 0.00 0.00 56 1009.8
20260904061405 59 108 0.0 0.0 0.00 0.00 0.00 55 1009.6
20260904060348 59 108 1.0 0.0 0.00 0.00 0.00 54 1010.4
20260904055329 59 186 2.0 0.0 0.00 0.00 0.00 54 1009.5
20260904054352 60 112 0.0 0.0 0.00 0.00 0.00 53 1009.3
20260904053339 61 109 0.0 0.0 0.00 0.00 0.00 52 1009.4
20260904052325 62 181 3.0 0.0 0.00 0.00 0.00 49 1010.0
20260904051328 63 158 2.0 0.0 0.00 0.00 0.00 47 1010.2
20260904050332 63 158 3.0 0.0 0.00 0.00 0.00 48 1010.2
20260904045339 64 152 1.0 0.0 0.00 0.00 0.00 47 1010.0
20260904044343 64 150 3.0 0.0 0.00 0.00 0.00 46 1010.2
20260904043347 64 162 2.0 0.0 0.00 0.00 0.00 46 1010.4
20260904042328 65 155 4.0 0.0 0.00 0.00 0.00 46 1010.5
20260904041332 66 132 3.0 0.0 0.00 0.00 0.00 40 1010.5
20260904040340 65 123 5.0 0.0 0.00 0.00 0.00 42 1010.6
20260904035404 66 90 1.0 0.0 0.00 0.00 0.00 43 1010.7
20260904034327 67 162 3.0 0.0 0.00 0.00 0.00 40 1010.8
20260904033329 65 124 7.0 0.0 0.00 0.00 0.00 44 1011.3
20260904032336 66 44 2.0 0.0 0.00 0.00 0.00 40 1011.0
20260904031340 67 213 4.0 0.0 0.00 0.00 0.00 39 1011.0
20260904030343 68 190 2.0 0.0 0.00 0.00 0.00 37 1010.8
20260904025325 69 186 3.0 0.0 0.00 0.00 0.00 35 1011.4
20260904024338 70 176 4.0 0.0 0.00 0.00 0.00 35 1011.0
20260904023405 70 181 6.0 0.0 0.00 0.00 0.00 34 1011.1
20260904022328 71 199 9.0 0.0 0.00 0.00 0.00 33 1011.0
20260904021331 72 214 10.0 0.0 0.00 0.00 0.00 32 1010.7
20260904020338 72 193 11.0 0.0 0.00 0.00 0.00 32 1010.7
20260904015405 72 210 11.0 0.0 0.00 0.00 0.00 32 1010.8
20260904014328 73 199 14.0 0.0 0.00 0.00 0.00 31 1010.8
20260904013351 74 210 16.0 0.0 0.00 0.00 0.00 30 1010.5
20260904012336 73 234 15.0 0.0 0.00 0.00 0.00 31 1010.6
20260904011342 74 217 16.0 0.0 0.00 0.00 0.00 31 1010.3
20260904010324 74 215 16.0 0.0 0.00 0.00 0.00 31 1012.2
20260904005334 74 218 16.0 0.0 0.00 0.00 0.00 31 1010.5
20260904004337 75 216 18.0 0.0 0.00 0.00 0.00 30 1010.3
20260904003327 74 210 17.0 0.0 0.00 0.00 0.00 30 1010.5
20260904002330 74 229 19.0 0.0 0.00 0.00 0.00 30 1010.3
20260904001337 74 206 19.0 0.0 0.00 0.00 0.00 30 1010.3
20260904000344 75 210 19.0 0.0 0.00 0.00 0.00 30 1010.1
20260903235329 77 176 19.0 0.0 0.00 0.00 0.00 29 1010.4
20260903234356 77 206 17.0 0.0 0.00 0.00 0.00 29 1010.4
20260903233339 76 226 18.0 0.0 0.00 0.00 0.00 30 1010.8
20260903232342 75 222 19.0 0.0 0.00 0.00 0.00 30 1010.8
20260903231330 76 220 19.0 0.0 0.00 0.00 0.00 30 1010.8
20260903230336 75 203 19.0 0.0 0.00 0.00 0.00 31 1010.9
20260903225339 76 219 19.0 0.0 0.00 0.00 0.00 30 1010.4
20260903224342 78 229 20.0 0.0 0.00 0.00 0.00 30 1010.7
20260903223405 75 198 19.0 0.0 0.00 0.00 0.00 31 1010.6
20260903222331 76 223 17.0 0.0 0.00 0.00 0.00 31 1010.3
20260903221335 78 224 18.0 0.0 0.00 0.00 0.00 30 1010.8
20260903220339 78 214 20.0 0.0 0.00 0.00 0.00 30 1010.9
20260903215343 75 217 23.0 0.0 0.00 0.00 0.00 33 1010.5
20260903214331 75 215 20.0 0.0 0.00 0.00 0.00 33 1010.5
20260903213337 75 238 21.0 0.0 0.00 0.00 0.00 32 1010.6
20260903212344 75 221 21.0 0.0 0.00 0.00 0.00 32 1010.4
20260903211328 76 219 19.0 0.0 0.00 0.00 0.00 32 1010.4
20260903210355 76 242 18.0 0.0 0.00 0.00 0.00 32 1010.5
20260903205338 75 196 17.0 0.0 0.00 0.00 0.00 32 1010.8
20260903204342 75 234 18.0 0.0 0.00 0.00 0.00 32 1010.8
20260903203328 75 211 12.0 0.0 0.00 0.00 0.00 32 1010.8
20260903202359 74 234 10.0 0.0 0.00 0.00 0.00 32 1011.3
20260903201342 76 198 12.0 0.0 0.00 0.00 0.00 31 1010.7
20260903200345 76 269 8.0 0.0 0.00 0.00 0.00 31 1011.0
20260903195329 77 314 14.0 0.0 0.00 0.00 0.00 30 1011.1
20260903194342 76 253 13.0 0.0 0.00 0.00 0.00 32 1011.3
20260903193326 76 272 10.0 0.0 0.00 0.00 0.00 31 1011.3
20260903192328 75 300 16.0 0.0 0.00 0.00 0.00 31 1010.9
20260903191351 76 241 13.0 0.0 0.00 0.00 0.00 31 1011.9
20260903190336 75 225 15.0 0.0 0.00 0.00 0.00 30 1011.1
20260903185403 75 274 10.0 0.0 0.00 0.00 0.00 32 1011.6
20260903184325 74 181 11.0 0.0 0.00 0.00 0.00 32 1012.1
20260903183327 72 202 10.0 0.0 0.00 0.00 0.00 32 1011.7
20260903182331 72 225 15.0 0.0 0.00 0.00 0.00 33 1011.9
20260903181339 71 242 16.0 0.0 0.00 0.00 0.00 35 1012.0
20260903180342 70 205 17.0 0.0 0.00 0.00 0.00 34 1012.3
20260903175345 70 231 18.0 0.0 0.00 0.00 0.00 33 1012.7
20260903174331 71 215 17.0 0.0 0.00 0.00 0.00 33 1012.3
20260903173334 71 210 18.0 0.0 0.00 0.00 0.00 33 1012.4
20260903172342 70 232 17.0 0.0 0.00 0.00 0.00 33 1012.6
20260903171404 70 218 14.0 0.0 0.00 0.00 0.00 34 1012.7
20260903170326 70 208 13.0 0.0 0.00 0.00 0.00 34 1012.7
20260903165329 70 193 16.0 0.0 0.00 0.00 0.00 34 1012.5
20260903164337 70 213 16.0 0.0 0.00 0.00 0.00 34 1012.5
20260903163342 68 204 14.0 0.0 0.00 0.00 0.00 36 1012.7
20260903162326 69 210 13.0 0.0 0.00 0.00 0.00 35 1012.5
20260903161328 69 250 15.0 0.0 0.00 0.00 0.00 35 1012.6
20260903160339 68 197 15.0 0.0 0.00 0.00 0.00 35 1012.9
20260903155405 67 243 12.0 0.0 0.00 0.00 0.00 36 1012.6
20260903154327 67 203 13.0 0.0 0.00 0.00 0.00 36 1012.7
20260903153333 66 218 13.0 0.0 0.00 0.00 0.00 38 1012.7
20260903152356 65 220 13.0 0.0 0.00 0.00 0.00 38 1013.1
20260903151343 66 225 14.0 0.0 0.00 0.00 0.00 39 1012.7
20260903150347 64 211 14.0 0.0 0.00 0.00 0.00 39 1012.2
20260903145329 64 195 14.0 0.0 0.00 0.00 0.00 40 1013.2
20260903144334 63 214 14.0 0.0 0.00 0.00 0.00 41 1012.6
20260903143336 63 245 12.0 0.0 0.00 0.00 0.00 42 1012.5
20260903142325 62 234 12.0 0.0 0.00 0.00 0.00 42 1012.6
20260903141330 62 237 17.0 0.0 0.00 0.00 0.00 41 1012.6
20260903140333 62 217 18.0 0.0 0.00 0.00 0.00 41 1012.4
20260903135342 62 209 17.0 0.0 0.00 0.00 0.00 43 1012.8
20260903134329 61 211 14.0 0.0 0.00 0.00 0.00 47 1012.9
20260903133336 57 215 11.0 0.0 0.00 0.00 0.00 63 1012.3
20260903132343 50 230 6.0 0.0 0.00 0.00 0.00 77 1012.8
20260903131325 49 286 4.0 0.0 0.00 0.00 0.00 78 1012.6
20260903130335 49 278 4.0 0.0 0.00 0.00 0.00 78 1012.5